When you browse on this site, cookies collect data to enhance your experience and personalize the content and advertising you see.
Visit our Privacy Policy to learn more. By continuing to use the site, you agree to this use of cookies and data.
  • In Lithuania
  • List of Countries
  • For 7 days
  • Water Temperature
  • Weather Map
  • Weather Widgets
  • user-avatar
    Login

    Hourly Weather Kalgoorlie

    Today, 19 November, Tuesday

    Time Temperature Precipitation Wind Pressure Humidity
    00:00 +22°C° 0 mm 9 mps 726 mmHg 59%
    01:00 +20°C° 0 mm 7 mps 726 mmHg 64%
    02:00 +18°C° 0 mm 7 mps 725 mmHg 67%
    03:00 +19°C° 0 mm 6 mps 725 mmHg 69%
    04:00 +19°C° 0 mm 6 mps 725 mmHg 72%
    05:00 +17°C° 0 mm 6 mps 725 mmHg 74%
    06:00 +22°C° 0 mm 6 mps 725 mmHg 60%
    07:00 +27°C° 0 mm 6 mps 725 mmHg 46%
    08:00 +33°C° 0 mm 6 mps 725 mmHg 28%
    09:00 +38°C° 0 mm 7 mps 724 mmHg 21%
    10:00 +43°C° 0 mm 9 mps 723 mmHg 14%
    11:00 +48°C° 0 mm 10 mps 723 mmHg 7%
    12:00 +49°C° 0 mm 10 mps 722 mmHg 6%
    13:00 +49°C° 0 mm 11 mps 721 mmHg 6%
    14:00 +49°C° 0 mm 11 mps 720 mmHg 5%
    15:00 +48°C° 0 mm 11 mps 720 mmHg 7%
    16:00 +46°C° 0 mm 12 mps 720 mmHg 9%
    17:00 +43°C° 0 mm 12 mps 720 mmHg 10%
    18:00 +41°C° 0 mm 11 mps 720 mmHg 13%
    19:00 +38°C° 0 mm 10 mps 721 mmHg 15%
    20:00 +35°C° 0 mm 9 mps 722 mmHg 18%
    21:00 +33°C° 0 mm 8 mps 722 mmHg 20%
    22:00 +32°C° 0 mm 6 mps 722 mmHg 23%
    23:00 +29°C° 0 mm 4 mps 722 mmHg 25%

    Tomorrow, 20 November, Wednesday

    Time Temperature Precipitation Wind Pressure Humidity
    00:00 +27°C° 0 mm 5 mps 722 mmHg 34%
    01:00 +23°C° 0 mm 5 mps 721 mmHg 42%
    02:00 +21°C° 0 mm 6 mps 721 mmHg 50%
    03:00 +20°C° 0 mm 6 mps 721 mmHg 59%
    04:00 +17°C° 0 mm 6 mps 722 mmHg 69%
    05:00 +15°C° 0 mm 6 mps 722 mmHg 78%
    06:00 +17°C° 0 mm 6 mps 723 mmHg 72%
    07:00 +18°C° 0 mm 7 mps 724 mmHg 67%
    08:00 +20°C° 0 mm 8 mps 724 mmHg 61%
    09:00 +22°C° 0 mm 8 mps 725 mmHg 48%
    10:00 +24°C° 0 mm 8 mps 725 mmHg 36%
    11:00 +26°C° 0 mm 9 mps 725 mmHg 23%
    12:00 +26°C° 0 mm 10 mps 725 mmHg 23%
    13:00 +26°C° 0 mm 11 mps 725 mmHg 23%
    14:00 +26°C° 0 mm 12 mps 725 mmHg 23%
    15:00 +24°C° 0 mm 12 mps 726 mmHg 23%
    16:00 +23°C° 0 mm 11 mps 726 mmHg 23%
    17:00 +22°C° 0 mm 10 mps 727 mmHg 23%
    18:00 +20°C° 0 mm 8 mps 727 mmHg 24%
    19:00 +19°C° 0 mm 6 mps 728 mmHg 25%
    20:00 +17°C° 0 mm 4 mps 729 mmHg 25%
    21:00 +15°C° 0 mm 5 mps 729 mmHg 33%
    22:00 +14°C° 0 mm 5 mps 730 mmHg 40%
    23:00 +13°C° 0 mm 5 mps 730 mmHg 47%

    Day after tomorrow, 21 November, Thursday

    Time Temperature Precipitation Wind Pressure Humidity
    00:00 +10°C° 0 mm 5 mps 730 mmHg 52%
    01:00 +10°C° 0 mm 4 mps 730 mmHg 57%
    02:00 +8°C° 0 mm 4 mps 730 mmHg 62%
    03:00 +9°C° 0 mm 3 mps 730 mmHg 68%
    04:00 +8°C° 0 mm 3 mps 731 mmHg 73%
    05:00 +8°C° 0 mm 2 mps 731 mmHg 78%
    06:00 +10°C° 0 mm 3 mps 731 mmHg 67%
    07:00 +12°C° 0 mm 3 mps 732 mmHg 56%
    08:00 +14°C° 0 mm 3 mps 732 mmHg 45%
    09:00 +18°C° 0 mm 2 mps 732 mmHg 37%
    10:00 +21°C° 0 mm 1 mps 732 mmHg 30%
    11:00 +21°C° 0 mm 0 mps 732 mmHg 22%
    12:00 +24°C° 0 mm 1 mps 731 mmHg 20%
    13:00 +25°C° 0 mm 1 mps 730 mmHg 17%
    14:00 +27°C° 0 mm 1 mps 730 mmHg 14%
    15:00 +27°C° 0 mm 1 mps 729 mmHg 14%
    16:00 +28°C° 0 mm 2 mps 729 mmHg 14%
    17:00 +28°C° 0 mm 2 mps 729 mmHg 13%
    18:00 +25°C° 0 mm 2 mps 729 mmHg 17%
    19:00 +22°C° 0 mm 1 mps 729 mmHg 20%
    20:00 +19°C° 0 mm 1 mps 729 mmHg 23%
    21:00 +19°C° 0 mm 1 mps 730 mmHg 23%
    22:00 +18°C° 0 mm 2 mps 730 mmHg 22%
    23:00 +18°C° 0 mm 2 mps 730 mmHg 22%

    22 November, Friday

    Time Temperature Precipitation Wind Pressure Humidity
    00:00 +18°C° 0 mm 2 mps 730 mmHg 22%
    01:00 +17°C° 0 mm 2 mps 729 mmHg 22%
    02:00 +17°C° 0 mm 2 mps 729 mmHg 22%
    03:00 +16°C° 0 mm 2 mps 729 mmHg 25%
    04:00 +15°C° 0 mm 2 mps 729 mmHg 27%
    05:00 +14°C° 0 mm 2 mps 729 mmHg 29%
    06:00 +17°C° 0 mm 2 mps 730 mmHg 25%
    07:00 +20°C° 0 mm 2 mps 730 mmHg 22%
    08:00 +24°C° 0 mm 2 mps 731 mmHg 18%
    09:00 +26°C° 0 mm 2 mps 731 mmHg 16%
    10:00 +29°C° 0 mm 2 mps 731 mmHg 13%
    11:00 +31°C° 0 mm 2 mps 730 mmHg 11%
    12:00 +33°C° 0 mm 3 mps 730 mmHg 10%
    13:00 +34°C° 0 mm 3 mps 729 mmHg 9%
    14:00 +35°C° 0 mm 4 mps 729 mmHg 8%
    15:00 +35°C° 0 mm 4 mps 729 mmHg 8%
    16:00 +35°C° 0 mm 4 mps 728 mmHg 8%
    17:00 +35°C° 0 mm 4 mps 728 mmHg 8%
    18:00 +32°C° 0 mm 6 mps 728 mmHg 11%
    19:00 +29°C° 0 mm 7 mps 729 mmHg 14%
    20:00 +27°C° 0 mm 8 mps 729 mmHg 18%
    21:00 +23°C° 0 mm 9 mps 729 mmHg 27%
    22:00 +21°C° 0 mm 9 mps 730 mmHg 37%
    23:00 +18°C° 0 mm 10 mps 730 mmHg 47%

    23 November, Saturday

    Time Temperature Precipitation Wind Pressure Humidity
    00:00 +17°C° 0 mm 9 mps 730 mmHg 48%
    01:00 +17°C° 0 mm 9 mps 730 mmHg 50%
    02:00 +16°C° 0 mm 9 mps 730 mmHg 52%
    03:00 +16°C° 0 mm 9 mps 730 mmHg 54%
    04:00 +15°C° 0 mm 8 mps 730 mmHg 56%
    05:00 +15°C° 0 mm 8 mps 730 mmHg 58%
    06:00 +17°C° 0 mm 8 mps 730 mmHg 51%
    07:00 +19°C° 0 mm 9 mps 731 mmHg 44%
    08:00 +21°C° 0 mm 9 mps 731 mmHg 37%
    09:00 +24°C° 0 mm 8 mps 731 mmHg 31%
    10:00 +28°C° 0 mm 8 mps 730 mmHg 26%
    11:00 +32°C° 0 mm 7 mps 730 mmHg 20%
    12:00 +33°C° 0 mm 6 mps 729 mmHg 18%
    13:00 +35°C° 0 mm 6 mps 728 mmHg 17%
    14:00 +36°C° 0 mm 5 mps 727 mmHg 15%
    15:00 +36°C° 0 mm 4 mps 727 mmHg 15%
    16:00 +36°C° 0 mm 3 mps 726 mmHg 15%
    17:00 +36°C° 0 mm 2 mps 726 mmHg 15%
    18:00 +35°C° 0 mm 3 mps 726 mmHg 17%
    19:00 +33°C° 0 mm 4 mps 726 mmHg 19%
    20:00 +30°C° 0 mm 5 mps 727 mmHg 20%
    21:00 +28°C° 0 mm 6 mps 727 mmHg 26%
    22:00 +26°C° 0 mm 6 mps 727 mmHg 31%
    23:00 +23°C° 0 mm 7 mps 727 mmHg 36%

    24 November, Sunday

    Time Temperature Precipitation Wind Pressure Humidity
    00:00 +21°C° 0 mm 7 mps 727 mmHg 43%
    01:00 +20°C° 0 mm 7 mps 726 mmHg 50%
    02:00 +17°C° 0 mm 7 mps 726 mmHg 57%
    03:00 +16°C° 0 mm 7 mps 726 mmHg 61%
    04:00 +15°C° 0 mm 7 mps 725 mmHg 66%
    05:00 +15°C° 0 mm 7 mps 725 mmHg 70%
    06:00 +17°C° 0 mm 6 mps 725 mmHg 60%
    07:00 +21°C° 0 mm 6 mps 725 mmHg 50%
    08:00 +24°C° 0 mm 6 mps 725 mmHg 40%
    09:00 +28°C° 0 mm 5 mps 725 mmHg 35%
    10:00 +30°C° 0 mm 3 mps 724 mmHg 29%
    11:00 +34°C° 0 mm 2 mps 723 mmHg 23%
    12:00 +35°C° 0 mm 3 mps 723 mmHg 21%
    13:00 +36°C° 0 mm 4 mps 722 mmHg 19%
    14:00 +39°C° 0 mm 5 mps 721 mmHg 18%
    15:00 +38°C° 0 mm 6 mps 721 mmHg 18%
    16:00 +38°C° 0 mm 7 mps 721 mmHg 18%
    17:00 +38°C° 0 mm 8 mps 721 mmHg 18%
    18:00 +32°C° 0 mm 10 mps 722 mmHg 30%
    19:00 +27°C° 0 mm 12 mps 723 mmHg 41%
    20:00 +22°C° 0 mm 14 mps 724 mmHg 52%
    21:00 +21°C° 0 mm 12 mps 725 mmHg 57%
    22:00 +19°C° 0 mm 11 mps 725 mmHg 61%
    23:00 +17°C° 0 mm 10 mps 726 mmHg 65%
    Show more